VU36VU-13 Weather Reports


time (UTC)temp
F
wind
direction
speed
knots
gust
knots
rain 1hr
in
rain 24hr
in
rain mn
in
humidity
%
barometer
mb
20260507213819 73 117 12.2 30.4 0.00 0.00 0.05 85 1010.0
20260507213619 73 117 12.2 30.4 0.00 0.00 0.05 85 1010.0
20260507213419 73 117 12.2 30.4 0.00 0.00 0.05 85 1010.0
20260507213022 73 117 12.2 30.4 0.00 0.00 0.05 85 1010.0
20260507212819 73 118 13.0 29.5 0.00 0.00 0.05 84 1010.0
20260507212619 73 118 13.0 29.5 0.00 0.00 0.05 84 1010.0
20260507212419 73 118 13.0 29.5 0.00 0.00 0.05 84 1010.0
20260507212219 73 118 13.0 29.5 0.00 0.00 0.05 84 1010.0
20260507212019 73 118 13.0 29.5 0.00 0.00 0.05 84 1010.0
20260507211819 73 118 13.0 29.5 0.00 0.00 0.05 84 1010.0
20260507211619 73 118 13.0 29.5 0.00 0.00 0.05 84 1010.0
20260507211219 73 119 13.9 29.5 0.00 0.00 0.05 82 1010.0
20260507211019 73 119 13.9 29.5 0.00 0.00 0.05 82 1010.0
20260507210819 73 119 13.9 29.5 0.00 0.00 0.05 82 1010.0
20260507210619 73 119 13.9 29.5 0.00 0.00 0.05 82 1010.0
20260507210419 73 119 13.9 29.5 0.00 0.00 0.05 82 1010.0
20260507210219 73 119 13.9 29.5 0.00 0.00 0.05 82 1010.0
20260507210024 73 120 13.9 30.4 0.00 0.00 0.05 81 1010.0
20260507205819 73 120 13.9 30.4 0.00 0.00 0.05 81 1010.0
20260507205619 73 120 13.9 30.4 0.00 0.00 0.05 81 1010.0
20260507205420 73 120 13.9 30.4 0.00 0.00 0.05 81 1010.0
20260507205019 73 120 13.9 30.4 0.00 0.00 0.05 81 1010.0
20260507204819 73 120 13.9 30.4 0.00 0.00 0.05 81 1010.0
20260507204619 73 120 13.9 30.4 0.00 0.00 0.05 81 1010.0
20260507204419 74 121 12.2 31.3 0.00 0.00 0.05 79 1010.0
20260507204219 74 121 12.2 31.3 0.00 0.00 0.05 79 1010.0
20260507204019 74 121 12.2 31.3 0.00 0.00 0.05 79 1010.0
20260507203819 74 121 12.2 31.3 0.00 0.00 0.05 79 1010.0
20260507203619 74 121 12.2 31.3 0.00 0.00 0.05 79 1010.0
20260507203419 74 121 12.2 31.3 0.00 0.00 0.05 79 1010.0
20260507203022 74 121 12.2 31.3 0.00 0.00 0.05 79 1010.0
20260507202819 74 121 12.2 32.2 0.00 0.00 0.05 78 1010.0
20260507202619 74 121 12.2 32.2 0.00 0.00 0.05 78 1010.0
20260507202419 74 121 12.2 32.2 0.00 0.00 0.05 78 1010.0
20260507202219 74 121 12.2 32.2 0.00 0.00 0.05 78 1010.0
20260507202019 74 121 12.2 32.2 0.00 0.00 0.05 78 1010.0
20260507201819 74 121 12.2 32.2 0.00 0.00 0.05 78 1010.0
20260507201619 74 121 12.2 32.2 0.00 0.00 0.05 78 1010.0
20260507201419 74 122 11.3 33.0 0.00 0.00 0.05 77 1010.0
20260507201219 74 122 11.3 33.0 0.00 0.00 0.05 77 1010.0
20260507200819 74 122 11.3 33.0 0.00 0.00 0.05 77 1010.0
20260507200619 74 122 11.3 33.0 0.00 0.00 0.05 77 1010.0
20260507200419 74 122 11.3 33.0 0.00 0.00 0.05 77 1010.0
20260507200219 74 122 11.3 33.0 0.00 0.00 0.05 77 1010.0
20260507200024 74 120 12.2 34.8 0.00 0.00 0.05 75 1010.0
20260507195819 74 120 12.2 34.8 0.00 0.00 0.05 75 1010.0
20260507195619 74 120 12.2 34.8 0.00 0.00 0.05 75 1010.0
20260507195419 74 120 12.2 34.8 0.00 0.00 0.05 75 1010.0
20260507195219 74 120 12.2 34.8 0.00 0.00 0.05 75 1010.0
20260507195020 74 120 12.2 34.8 0.00 0.00 0.05 75 1010.0
20260507194619 74 120 12.2 34.8 0.00 0.00 0.05 75 1010.0
20260507194419 75 119 13.0 36.5 0.00 0.00 0.05 74 1011.0
20260507194219 75 119 13.0 36.5 0.00 0.00 0.05 74 1011.0
20260507194020 75 119 13.0 36.5 0.00 0.00 0.05 74 1011.0
20260507193819 75 119 13.0 36.5 0.00 0.00 0.05 74 1011.0
20260507193619 75 119 13.0 36.5 0.00 0.00 0.05 74 1011.0
20260507193419 75 119 13.0 36.5 0.00 0.00 0.05 74 1011.0
20260507193219 75 119 13.0 36.5 0.00 0.00 0.05 74 1011.0
20260507193022 75 119 13.0 36.5 0.00 0.00 0.05 74 1011.0
20260507192819 75 118 14.8 38.2 0.00 0.00 0.05 72 1011.0
20260507192419 75 118 14.8 38.2 0.00 0.00 0.05 72 1011.0
20260507192219 75 118 14.8 38.2 0.00 0.00 0.05 72 1011.0
20260507192020 75 118 14.8 38.2 0.00 0.00 0.05 72 1011.0
20260507191819 75 118 14.8 38.2 0.00 0.00 0.05 72 1011.0
20260507191619 75 118 14.8 38.2 0.00 0.00 0.05 72 1011.0
20260507191419 75 118 15.6 40.0 0.00 0.00 0.05 71 1011.0
20260507191219 75 118 15.6 40.0 0.00 0.00 0.05 71 1011.0
20260507191020 75 118 15.6 40.0 0.00 0.00 0.05 71 1011.0
20260507190819 75 118 15.6 40.0 0.00 0.00 0.05 71 1011.0
20260507190620 75 118 15.6 40.0 0.00 0.00 0.05 71 1011.0
20260507190219 75 118 15.6 40.0 0.00 0.00 0.05 71 1011.0
20260507190024 76 117 15.6 40.0 0.00 0.00 0.00 69 1011.0
20260507185819 76 117 15.6 40.0 0.00 0.00 0.00 69 1011.0
20260507185619 76 117 15.6 40.0 0.00 0.00 0.00 69 1011.0
20260507185419 76 117 15.6 40.0 0.00 0.00 0.00 69 1011.0
20260507185219 76 117 15.6 40.0 0.00 0.00 0.00 69 1011.0
20260507185019 76 117 15.6 40.0 0.00 0.00 0.00 69 1011.0
20260507184819 76 117 15.6 40.0 0.00 0.00 0.00 69 1011.0
20260507184620 76 117 15.6 40.0 0.00 0.00 0.00 69 1011.0
20260507184219 76 115 15.6 35.6 0.00 0.00 0.00 68 1011.0
20260507184020 76 115 15.6 35.6 0.00 0.00 0.00 68 1011.0
20260507183819 76 115 15.6 35.6 0.00 0.00 0.00 68 1011.0
20260507183619 76 115 15.6 35.6 0.00 0.00 0.00 68 1011.0
20260507183419 76 115 15.6 35.6 0.00 0.00 0.00 68 1011.0
20260507183219 76 115 15.6 35.6 0.00 0.00 0.00 68 1011.0
20260507183022 77 115 15.6 35.6 0.00 0.00 0.00 66 1011.0
20260507182819 77 113 15.6 35.6 0.00 0.00 0.00 65 1011.0
20260507182619 77 113 15.6 35.6 0.00 0.00 0.00 65 1011.0
20260507182420 77 113 15.6 35.6 0.00 0.00 0.00 65 1011.0
20260507182020 77 113 15.6 35.6 0.00 0.00 0.00 65 1011.0
20260507181819 77 113 15.6 35.6 0.00 0.00 0.00 68 1011.0
20260507181619 77 113 15.6 35.6 0.00 0.00 0.00 68 1011.0
20260507181419 77 113 15.6 35.6 0.00 0.00 0.00 67 1011.0
20260507181219 77 113 15.6 35.6 0.00 0.00 0.00 67 1011.0
20260507181020 77 113 15.6 35.6 0.00 0.00 0.00 67 1011.0
20260507180819 77 113 15.6 35.6 0.00 0.00 0.00 67 1011.0
20260507180619 77 113 15.6 35.6 0.00 0.00 0.00 67 1011.0
20260507180419 77 113 15.6 35.6 0.00 0.00 0.00 67 1011.0
20260507180220 77 113 15.6 35.6 0.00 0.00 0.00 67 1011.0
20260507175819 77 115 15.6 35.6 0.00 0.00 0.00 66 1011.0
20260507175619 77 115 15.6 35.6 0.00 0.00 0.00 66 1011.0
20260507175419 77 115 15.6 35.6 0.00 0.00 0.00 66 1011.0
20260507175219 77 115 15.6 35.6 0.00 0.00 0.00 66 1011.0
20260507175020 77 115 15.6 35.6 0.00 0.00 0.00 66 1011.0
20260507174819 77 115 15.6 35.6 0.00 0.00 0.00 66 1011.0
20260507174619 77 115 15.6 35.6 0.00 0.00 0.00 66 1011.0
20260507174419 78 118 14.8 34.8 0.00 0.00 0.00 65 1011.0
20260507174219 78 118 14.8 34.8 0.00 0.00 0.00 65 1011.0
20260507171219 78 125 14.8 33.0 0.00 0.00 0.00 63 1011.0
20260507171122 78 125 14.8 33.0 0.00 0.00 0.00 63 1011.0
20260507170819 78 125 14.8 33.0 0.00 0.00 0.00 63 1011.0
20260507170619 78 125 14.8 33.0 0.00 0.00 0.00 63 1011.0
20260507170419 78 125 14.8 33.0 0.00 0.00 0.00 63 1011.0
20260507170219 78 125 14.8 33.0 0.00 0.00 0.00 63 1011.0
20260507170024 78 129 14.8 33.0 0.00 0.00 0.00 62 1011.0
20260507165819 78 129 14.8 33.0 0.00 0.00 0.00 62 1011.0
20260507165619 78 129 14.8 33.0 0.00 0.00 0.00 62 1011.0
20260507165219 78 129 14.8 33.0 0.00 0.00 0.00 62 1011.0
20260507165020 78 129 14.8 33.0 0.00 0.00 0.00 62 1011.0
20260507164819 78 129 14.8 33.0 0.00 0.00 0.00 62 1011.0
20260507164619 78 129 14.8 33.0 0.00 0.00 0.00 62 1011.0
20260507164419 79 134 14.8 33.0 0.00 0.00 0.00 61 1011.0
20260507164219 79 134 14.8 33.0 0.00 0.00 0.00 61 1011.0
20260507164020 79 134 14.8 33.0 0.00 0.00 0.00 61 1011.0
20260507163819 79 134 14.8 33.0 0.00 0.00 0.00 61 1011.0
20260507163619 79 134 14.8 33.0 0.00 0.00 0.00 61 1011.0
20260507163420 79 134 14.8 33.0 0.00 0.00 0.00 61 1011.0
20260507163022 79 134 14.8 33.0 0.00 0.00 0.00 61 1011.0
20260507162819 79 138 14.8 33.9 0.00 0.00 0.00 60 1011.0
20260507162619 79 138 14.8 33.9 0.00 0.00 0.00 60 1011.0
20260507162419 79 138 14.8 33.9 0.00 0.00 0.00 60 1011.0
20260507162220 79 138 14.8 33.9 0.00 0.00 0.00 60 1011.0
20260507162020 79 138 14.8 33.9 0.00 0.00 0.00 60 1011.0
20260507161819 79 138 14.8 33.9 0.00 0.00 0.00 60 1011.0
20260507161619 79 138 14.8 33.9 0.00 0.00 0.00 60 1011.0
20260507161419 79 142 14.8 33.9 0.00 0.00 0.00 59 1011.0
20260507161020 79 142 14.8 33.9 0.00 0.00 0.00 59 1011.0
20260507160819 79 142 14.8 33.9 0.00 0.00 0.00 59 1011.0
20260507160619 79 142 14.8 33.9 0.00 0.00 0.00 59 1011.0
20260507160419 79 142 14.8 33.9 0.00 0.00 0.00 59 1011.0
20260507160219 79 142 14.8 33.9 0.00 0.00 0.00 59 1011.0
20260507160024 80 143 14.8 33.9 0.00 0.00 0.00 57 1011.0
20260507155819 80 143 14.8 33.9 0.00 0.00 0.00 57 1011.0
20260507155619 80 143 14.8 33.9 0.00 0.00 0.00 57 1011.0
20260507155419 80 143 14.8 33.9 0.00 0.00 0.00 57 1011.0
20260507155220 80 143 14.8 33.9 0.00 0.00 0.00 57 1011.0
20260507154819 80 143 14.8 33.9 0.00 0.00 0.00 57 1011.0
20260507154620 80 143 14.8 33.9 0.00 0.00 0.00 57 1011.0
20260507154419 80 145 14.8 34.8 0.00 0.00 0.00 55 1010.0
20260507154219 80 145 14.8 34.8 0.00 0.00 0.00 55 1010.0
20260507154021 80 145 14.8 34.8 0.00 0.00 0.00 55 1010.0
20260507153819 80 145 14.8 34.8 0.00 0.00 0.00 55 1010.0
20260507153620 80 145 14.8 34.8 0.00 0.00 0.00 55 1010.0
20260507153419 80 145 14.8 34.8 0.00 0.00 0.00 55 1010.0
20260507153219 80 145 14.8 34.8 0.00 0.00 0.00 55 1010.0
20260507152819 81 145 14.8 34.8 0.00 0.00 0.00 53 1010.0
20260507152620 81 145 14.8 34.8 0.00 0.00 0.00 53 1010.0
20260507152419 81 145 14.8 34.8 0.00 0.00 0.00 53 1010.0
20260507152219 81 145 14.8 34.8 0.00 0.00 0.00 53 1010.0
20260507152020 81 145 14.8 34.8 0.00 0.00 0.00 53 1010.0
20260507151830 81 145 14.8 34.8 0.00 0.00 0.00 53 1010.0
20260507151819 81 145 14.8 34.8 0.00 0.00 0.00 53 1010.0
20260507151619 81 145 14.8 34.8 0.00 0.00 0.00 53 1010.0
20260507151419 81 140 13.0 34.8 0.00 0.00 0.00 52 1010.0
20260507151219 81 140 13.0 34.8 0.00 0.00 0.00 52 1010.0
20260507151022 81 140 13.0 34.8 0.00 0.00 0.00 52 1010.0
20260507150839 81 140 13.0 34.8 0.00 0.00 0.00 52 1010.0
20260507150639 81 140 13.0 34.8 0.00 0.00 0.00 52 1010.0
20260507150439 81 140 13.0 34.8 0.00 0.00 0.00 52 1010.0
20260507150239 81 140 13.0 34.8 0.00 0.00 0.00 52 1010.0
20260507150041 81 140 13.0 34.8 0.00 0.00 0.00 52 1010.0
20260507145839 82 124 11.3 33.9 0.00 0.00 0.00 50 1009.0
20260507145639 82 124 11.3 33.9 0.00 0.00 0.00 50 1009.0
20260507145439 82 124 11.3 33.9 0.00 0.00 0.00 50 1009.0
20260507145239 82 124 11.3 33.9 0.00 0.00 0.00 50 1009.0
20260507144839 82 124 11.3 33.9 0.00 0.00 0.00 50 1009.0
20260507144639 82 124 11.3 33.9 0.00 0.00 0.00 50 1009.0
20260507144439 83 93 10.4 32.2 0.00 0.00 0.00 49 1009.0
20260507144239 83 93 10.4 32.2 0.00 0.00 0.00 49 1009.0
20260507144039 83 93 10.4 32.2 0.00 0.00 0.00 49 1009.0
20260507143839 83 93 10.4 32.2 0.00 0.00 0.00 49 1009.0
20260507143639 83 93 10.4 32.2 0.00 0.00 0.00 49 1009.0
20260507143439 83 93 10.4 32.2 0.00 0.00 0.00 49 1009.0
20260507143239 83 93 10.4 32.2 0.00 0.00 0.00 49 1009.0
20260507143040 83 93 10.4 32.2 0.00 0.00 0.00 49 1009.0
20260507142639 83 68 12.2 30.4 0.00 0.00 0.00 48 1009.0
20260507142439 83 68 12.2 30.4 0.00 0.00 0.00 48 1009.0
20260507142239 83 68 12.2 30.4 0.00 0.00 0.00 48 1009.0
20260507142039 83 68 12.2 30.4 0.00 0.00 0.00 48 1009.0
20260507141839 83 68 12.2 30.4 0.00 0.00 0.00 48 1009.0
20260507141639 83 68 12.2 30.4 0.00 0.00 0.00 48 1009.0
20260507141439 84 56 13.9 29.5 0.00 0.00 0.00 47 1008.0
20260507141239 84 56 13.9 29.5 0.00 0.00 0.00 47 1008.0
20260507141039 84 56 13.9 29.5 0.00 0.00 0.00 47 1008.0
20260507140639 84 56 13.9 29.5 0.00 0.00 0.00 47 1008.0
20260507140439 84 56 13.9 29.5 0.00 0.00 0.00 47 1008.0
20260507140239 84 56 13.9 29.5 0.00 0.00 0.00 47 1008.0
20260507140042 84 56 13.9 29.5 0.00 0.00 0.00 47 1008.0
20260507135839 84 54 13.0 31.3 0.00 0.00 0.00 46 1008.0
20260507135639 84 54 13.0 31.3 0.00 0.00 0.00 46 1008.0
20260507135439 84 54 13.0 31.3 0.00 0.00 0.00 46 1008.0
20260507135239 84 54 13.0 31.3 0.00 0.00 0.00 46 1008.0
20260507135039 84 54 13.0 31.3 0.00 0.00 0.00 46 1008.0
20260507134840 84 54 13.0 31.3 0.00 0.00 0.00 46 1008.0
20260507134439 84 57 11.3 33.0 0.00 0.00 0.00 46 1008.0
20260507134239 84 57 11.3 33.0 0.00 0.00 0.00 46 1008.0
20260507134039 84 57 11.3 33.0 0.00 0.00 0.00 46 1008.0
20260507133839 84 57 11.3 33.0 0.00 0.00 0.00 46 1008.0
20260507133639 84 57 11.3 33.0 0.00 0.00 0.00 46 1008.0
20260507133439 84 57 11.3 33.0 0.00 0.00 0.00 46 1008.0
20260507133239 84 42 13.9 33.0 0.00 0.00 0.00 46 1008.0
20260507133039 84 42 13.9 33.0 0.00 0.00 0.00 46 1008.0
20260507132839 84 38 13.0 35.6 0.00 0.00 0.00 46 1008.0
20260507132640 84 40 13.0 35.6 0.00 0.00 0.00 46 1008.0
20260507132239 84 40 13.0 35.6 0.00 0.00 0.00 46 1008.0
20260507132039 84 40 13.0 35.6 0.00 0.00 0.00 46 1008.0
20260507131839 84 40 13.0 35.6 0.00 0.00 0.00 46 1008.0
20260507131639 84 40 13.0 38.2 0.00 0.00 0.00 46 1008.0
20260507131439 84 48 13.9 38.2 0.00 0.00 0.00 45 1007.0
20260507131239 84 48 13.9 38.2 0.00 0.00 0.00 45 1007.0
20260507131039 84 48 13.9 38.2 0.00 0.00 0.00 45 1007.0
20260507130839 84 48 13.9 38.2 0.00 0.00 0.00 45 1007.0
20260507130639 84 48 13.9 38.2 0.00 0.00 0.00 45 1007.0
20260507130239 86 48 13.9 38.2 0.00 0.00 0.00 42 1007.0
20260507130041 86 48 13.9 38.2 0.00 0.00 0.00 42 1007.0
20260507125839 87 57 13.0 38.2 0.00 0.00 0.00 41 1007.0
20260507125639 87 57 13.0 38.2 0.00 0.00 0.00 41 1007.0
20260507125439 87 57 13.0 38.2 0.00 0.00 0.00 41 1007.0
20260507125239 87 57 13.0 38.2 0.00 0.00 0.00 41 1007.0
20260507125039 87 57 13.0 38.2 0.00 0.00 0.00 41 1007.0
20260507124839 87 57 13.0 38.2 0.00 0.00 0.00 41 1007.0
20260507124639 87 57 13.0 38.2 0.00 0.00 0.00 41 1007.0
20260507124439 87 67 13.0 40.0 0.00 0.00 0.00 40 1007.0
20260507124039 87 67 13.0 40.0 0.00 0.00 0.00 40 1007.0
20260507123839 87 67 13.0 40.0 0.00 0.00 0.00 40 1006.0
20260507123639 87 67 13.0 40.0 0.00 0.00 0.00 40 1006.0
20260507123439 87 67 13.0 40.0 0.00 0.00 0.00 40 1006.0
20260507123239 87 67 13.0 40.0 0.00 0.00 0.01 40 1006.0
20260507123039 87 67 13.0 40.0 0.00 0.00 0.01 38 1006.0
20260507122839 88 78 13.0 41.7 0.00 0.00 0.01 37 1006.0
20260507122639 88 78 13.0 41.7 0.00 0.00 0.01 37 1006.0
20260507122439 88 78 13.0 41.7 0.00 0.00 0.01 37 1006.0
20260507122240 88 78 13.0 41.7 0.00 0.00 0.01 37 1006.0
20260507121839 88 78 13.0 41.7 0.00 0.00 0.01 37 1006.0
20260507121639 88 78 13.0 41.7 0.00 0.00 0.01 37 1006.0
20260507121439 88 85 13.9 41.7 0.00 0.00 0.01 36 1006.0
20260507121239 88 85 13.9 41.7 0.00 0.00 0.01 36 1006.0
20260507121039 88 85 13.9 41.7 0.00 0.00 0.01 36 1006.0
20260507120839 88 85 13.9 41.7 0.00 0.00 0.01 36 1006.0
20260507120639 88 85 13.9 41.7 0.00 0.00 0.01 36 1006.0
20260507120439 88 85 13.9 41.7 0.00 0.00 0.01 36 1006.0
20260507120239 88 85 13.9 41.7 0.00 0.00 0.01 36 1006.0
20260507120042 88 85 13.9 41.7 0.00 0.00 0.01 36 1006.0
20260507115639 89 85 13.9 41.7 0.00 0.00 0.01 35 1006.0
20260507115439 89 85 13.9 41.7 0.00 0.00 0.01 35 1006.0
20260507115239 89 85 13.9 41.7 0.00 0.00 0.01 35 1006.0
20260507115039 89 85 13.9 41.7 0.00 0.00 0.01 35 1006.0
20260507114839 89 85 13.9 41.7 0.00 0.00 0.01 35 1006.0
20260507114639 89 85 13.9 41.7 0.00 0.00 0.01 35 1006.0
20260507114439 89 83 13.9 41.7 0.00 0.00 0.01 34 1005.0
20260507114239 89 83 13.9 41.7 0.00 0.00 0.01 34 1005.0
20260507114039 89 83 13.9 41.7 0.00 0.00 0.01 34 1005.0
20260507113639 89 83 13.9 41.7 0.00 0.00 0.01 34 1005.0
20260507113439 89 83 13.9 41.7 0.00 0.00 0.01 34 1005.0
20260507113239 89 83 13.9 41.7 0.00 0.00 0.01 34 1005.0
20260507113039 89 83 13.9 41.7 0.00 0.00 0.01 34 1005.0
20260507112839 90 78 13.9 41.7 0.00 0.00 0.01 33 1005.0
20260507112639 90 78 13.9 41.7 0.00 0.00 0.01 33 1005.0
20260507112439 90 78 13.9 41.7 0.00 0.00 0.01 33 1005.0
20260507112239 90 78 13.9 41.7 0.00 0.00 0.01 33 1005.0
20260507112041 90 78 13.9 41.7 0.00 0.00 0.01 33 1005.0
20260507111841 90 78 13.9 41.7 0.00 0.00 0.01 33 1005.0
20260507111439 91 76 13.9 41.7 0.00 0.00 0.01 33 1005.0
20260507111239 91 76 13.9 41.7 0.00 0.00 0.01 33 1005.0
20260507111039 91 76 13.9 41.7 0.00 0.00 0.01 33 1005.0
20260507110839 91 76 13.9 41.7 0.00 0.00 0.01 33 1005.0
20260507110639 91 76 13.9 41.7 0.00 0.00 0.01 33 1005.0
20260507110439 91 76 13.9 41.7 0.00 0.00 0.01 33 1005.0
20260507110239 91 76 13.9 41.7 0.00 0.00 0.01 33 1005.0
20260507110042 91 76 13.9 41.7 0.00 0.00 0.01 33 1005.0
20260507105840 91 77 13.0 41.7 0.00 0.00 0.01 33 1005.0
20260507105439 91 77 13.0 41.7 0.00 0.00 0.01 33 1005.0
20260507105239 91 77 13.0 41.7 0.00 0.00 0.01 33 1005.0
20260507105039 91 77 13.0 41.7 0.00 0.00 0.01 33 1005.0
20260507104839 91 77 13.0 41.7 0.00 0.00 0.01 33 1005.0
20260507104639 91 77 13.0 41.7 0.00 0.00 0.01 33 1005.0
20260507104439 91 79 13.0 41.7 0.00 0.00 0.01 32 1005.0
20260507104239 91 79 13.0 41.7 0.00 0.00 0.01 32 1005.0
20260507104039 91 79 13.0 41.7 0.00 0.00 0.01 32 1005.0
20260507103839 91 79 13.0 41.7 0.00 0.00 0.01 32 1005.0
20260507103640 91 79 13.0 41.7 0.00 0.00 0.01 32 1005.0
20260507101439 91 86 12.2 43.4 0.00 0.00 0.01 32 1006.0
20260507101239 91 86 12.2 43.4 0.00 0.00 0.01 32 1006.0
20260507101039 91 86 12.2 43.4 0.00 0.00 0.01 32 1006.0
20260507100839 91 86 12.2 43.4 0.00 0.00 0.01 32 1006.0
20260507100640 91 86 12.2 43.4 0.00 0.00 0.01 32 1006.0
20260507100439 91 86 12.2 43.4 0.00 0.00 0.01 32 1006.0
20260507100239 91 86 12.2 43.4 0.00 0.00 0.01 32 1006.0
20260507100041 91 86 12.2 43.4 0.00 0.00 0.01 32 1006.0
20260507095839 91 87 12.2 44.3 0.00 0.00 0.01 33 1006.0
20260507095639 91 87 12.2 44.3 0.00 0.00 0.01 33 1006.0
20260507095239 91 87 12.2 44.3 0.00 0.00 0.01 33 1006.0
20260507095039 91 87 12.2 44.3 0.00 0.00 0.01 33 1006.0
20260507094839 91 87 12.2 44.3 0.00 0.00 0.01 33 1006.0
20260507094639 91 87 12.2 44.3 0.00 0.00 0.01 33 1006.0
20260507094439 91 87 12.2 45.2 0.00 0.00 0.01 33 1006.0
20260507094239 91 87 12.2 45.2 0.00 0.00 0.01 33 1006.0
20260507094039 91 87 12.2 45.2 0.00 0.00 0.01 33 1006.0
20260507093839 91 87 12.2 45.2 0.00 0.00 0.01 33 1006.0
20260507093639 91 87 12.2 45.2 0.00 0.00 0.01 33 1006.0
20260507093439 91 87 12.2 45.2 0.00 0.00 0.01 33 1006.0
20260507093040 91 87 12.2 45.2 0.00 0.00 0.01 33 1006.0
20260507092839 91 89 12.2 46.1 0.00 0.00 0.01 34 1006.0
20260507092639 91 89 12.2 46.1 0.00 0.00 0.01 34 1006.0
20260507092439 91 89 12.2 46.1 0.00 0.00 0.01 34 1006.0
20260507092239 91 95 13.0 46.1 0.00 0.00 0.01 34 1006.0
20260507092039 91 95 13.0 46.1 0.00 0.00 0.01 34 1006.0
20260507091839 91 95 13.0 46.1 0.00 0.00 0.01 34 1006.0
20260507091639 91 95 13.0 46.1 0.00 0.00 0.01 34 1006.0
20260507091439 91 99 13.0 46.1 0.00 0.00 0.01 34 1006.0
20260507091240 91 99 13.0 46.1 0.00 0.00 0.01 34 1006.0
20260507090839 91 99 13.0 46.1 0.00 0.00 0.01 34 1006.0
20260507090639 91 99 13.0 46.1 0.00 0.00 0.01 34 1006.0
20260507090439 91 99 13.0 46.1 0.00 0.00 0.01 34 1006.0
20260507090239 91 99 13.0 46.1 0.00 0.00 0.01 34 1006.0
20260507090041 91 99 13.0 46.1 0.00 0.00 0.01 34 1006.0
20260507085839 91 100 13.0 46.1 0.00 0.00 0.01 34 1007.0
20260507085639 91 100 13.0 46.1 0.00 0.00 0.01 34 1007.0
20260507085439 91 100 13.0 46.1 0.00 0.00 0.01 34 1007.0
20260507085239 91 100 13.0 46.1 0.00 0.00 0.01 34 1007.0
20260507084839 91 100 13.0 46.1 0.00 0.00 0.01 34 1007.0
20260507084639 91 100 13.0 46.1 0.00 0.00 0.01 34 1007.0
20260507084439 91 102 13.0 46.1 0.00 0.00 0.01 34 1007.0
20260507084239 91 102 13.0 46.1 0.00 0.00 0.01 34 1007.0
20260507084039 91 102 13.0 46.1 0.00 0.00 0.01 34 1007.0
20260507083839 91 102 13.0 46.1 0.00 0.00 0.01 34 1007.0
20260507083639 91 102 13.0 46.1 0.00 0.00 0.01 34 1007.0
20260507083439 91 102 13.0 46.1 0.00 0.00 0.01 34 1007.0
20260507083239 91 102 13.0 46.1 0.00 0.00 0.01 34 1007.0
20260507083039 91 102 13.0 46.1 0.00 0.00 0.01 34 1007.0
20260507082639 91 103 13.0 46.1 0.00 0.00 0.01 33 1007.0
20260507082439 91 103 13.0 46.1 0.00 0.00 0.01 33 1007.0
20260507082239 91 103 13.0 46.1 0.00 0.00 0.01 33 1007.0
20260507082039 91 103 13.0 46.1 0.00 0.00 0.01 33 1007.0
20260507081840 91 103 13.0 46.1 0.00 0.00 0.01 33 1007.0
20260507081639 91 103 13.0 46.1 0.00 0.00 0.01 33 1007.0
20260507081439 91 105 12.2 45.2 0.00 0.00 0.01 34 1008.0
20260507081239 91 105 12.2 45.2 0.00 0.00 0.01 34 1008.0
20260507081039 91 105 12.2 45.2 0.00 0.00 0.01 34 1008.0
20260507080840 91 105 12.2 45.2 0.00 0.00 0.01 34 1008.0
20260507074639 90 108 12.2 44.3 0.00 0.00 0.01 34 1008.0
20260507074444 90 113 12.2 44.3 0.00 0.00 0.01 35 1008.0
20260507074239 90 113 12.2 44.3 0.00 0.00 0.01 35 1008.0
20260507074039 90 113 12.2 44.3 0.00 0.00 0.01 35 1008.0
20260507073839 90 113 12.2 44.3 0.00 0.00 0.01 35 1008.0
20260507073639 90 113 12.2 44.3 0.00 0.00 0.01 35 1008.0
20260507073439 90 113 12.2 44.3 0.00 0.00 0.01 35 1008.0
20260507073239 90 113 12.2 44.3 0.00 0.00 0.01 35 1008.0
20260507073040 90 113 12.2 44.3 0.00 0.00 0.01 35 1008.0
20260507072839 89 118 12.2 43.4 0.00 0.00 0.01 35 1009.0
20260507072439 89 118 12.2 43.4 0.00 0.00 0.01 35 1009.0
20260507072239 89 118 12.2 43.4 0.00 0.00 0.01 35 1009.0
20260507072039 89 118 12.2 43.4 0.00 0.00 0.01 35 1009.0
20260507071841 89 118 12.2 43.4 0.00 0.00 0.01 35 1009.0
20260507071639 89 118 12.2 43.4 0.00 0.00 0.01 35 1009.0
20260507071439 89 122 11.3 42.6 0.00 0.00 0.01 36 1009.0
20260507071239 89 122 11.3 42.6 0.00 0.00 0.01 36 1009.0
20260507071039 89 122 11.3 42.6 0.00 0.00 0.01 36 1009.0
20260507070839 89 122 11.3 42.6 0.00 0.00 0.01 36 1009.0
20260507070640 89 122 11.3 42.6 0.00 0.00 0.01 36 1009.0
20260507070239 89 122 11.3 42.6 0.00 0.00 0.01 36 1009.0
20260507070042 89 122 11.3 42.6 0.00 0.00 0.01 36 1009.0
20260507065839 88 122 11.3 41.7 0.00 0.00 0.01 37 1009.0
20260507065639 88 122 11.3 41.7 0.00 0.00 0.01 37 1009.0
20260507065439 88 122 11.3 41.7 0.00 0.00 0.01 37 1009.0
20260507065239 88 122 11.3 41.7 0.00 0.00 0.01 37 1009.0
20260507065039 88 122 11.3 41.7 0.00 0.00 0.01 37 1009.0
20260507064840 88 122 11.3 41.7 0.00 0.00 0.01 37 1009.0
20260507064640 88 122 11.3 41.7 0.00 0.00 0.01 37 1009.0
20260507064239 88 122 11.3 41.7 0.00 0.00 0.01 38 1010.0
20260507064039 88 122 11.3 41.7 0.00 0.00 0.01 38 1010.0
20260507063839 88 122 11.3 41.7 0.00 0.00 0.01 38 1010.0
20260507063639 88 122 11.3 41.7 0.00 0.00 0.01 38 1010.0
20260507063440 88 122 11.3 41.7 0.00 0.00 0.01 38 1010.0
20260507063239 88 122 11.3 41.7 0.00 0.00 0.01 38 1010.0
20260507063040 88 122 11.3 41.7 0.00 0.00 0.01 38 1010.0
20260507062839 88 122 10.4 41.7 0.00 0.00 0.01 39 1010.0
20260507062639 88 122 10.4 41.7 0.00 0.00 0.01 39 1010.0
20260507062440 88 122 10.4 41.7 0.00 0.00 0.01 39 1010.0
20260507062039 88 122 10.4 41.7 0.00 0.00 0.01 39 1010.0
20260507061839 88 122 10.4 41.7 0.00 0.00 0.01 39 1010.0
20260507061639 88 122 10.4 41.7 0.00 0.00 0.01 39 1010.0
20260507061444 87 124 9.6 41.7 0.00 0.00 0.01 40 1010.0
20260507061239 87 124 9.6 41.7 0.00 0.00 0.01 40 1010.0
20260507061039 87 124 9.6 41.7 0.00 0.00 0.01 40 1010.0
20260507060839 87 124 9.6 41.7 0.00 0.00 0.01 40 1010.0
20260507060639 87 124 9.6 41.7 0.00 0.00 0.01 40 1010.0
20260507060439 87 124 9.6 41.7 0.00 0.00 0.01 40 1010.0
20260507060042 87 124 9.6 41.7 0.00 0.00 0.01 40 1010.0
20260507055839 87 129 9.6 40.8 0.00 0.00 0.01 41 1010.0
20260507055639 87 129 9.6 40.8 0.00 0.00 0.01 41 1010.0
20260507055439 87 129 9.6 40.8 0.00 0.00 0.01 41 1010.0
20260507055239 87 129 9.6 40.8 0.00 0.00 0.01 41 1010.0
20260507055039 87 129 9.6 40.8 0.00 0.00 0.01 41 1010.0
20260507054839 87 129 9.6 40.8 0.00 0.00 0.01 41 1010.0
20260507054639 87 129 9.6 40.8 0.00 0.00 0.01 41 1010.0
20260507054439 86 138 8.7 40.0 0.00 0.00 0.01 43 1011.0
20260507054239 86 138 8.7 40.0 0.00 0.00 0.01 43 1011.0
20260507053839 86 138 8.7 40.0 0.00 0.00 0.01 43 1011.0
20260507053639 86 138 8.7 40.0 0.00 0.00 0.01 43 1011.0
20260507053439 86 138 8.7 40.0 0.00 0.00 0.01 43 1011.0
20260507053239 86 138 8.7 40.0 0.00 0.00 0.01 43 1011.0
20260507053040 86 138 8.7 40.0 0.00 0.00 0.01 43 1011.0
20260507052839 85 146 8.7 38.2 0.00 0.00 0.01 45 1011.0
20260507052639 85 146 8.7 38.2 0.00 0.00 0.01 45 1011.0
20260507052441 85 146 8.7 38.2 0.00 0.00 0.01 45 1011.0
20260507052239 85 146 8.7 38.2 0.00 0.00 0.01 45 1011.0
20260507052039 85 146 8.7 38.2 0.00 0.00 0.01 45 1011.0
20260507051640 85 146 8.7 38.2 0.00 0.00 0.01 45 1011.0
20260507051440 85 153 8.7 38.2 0.00 0.00 0.01 47 1011.0
20260507051240 85 153 8.7 38.2 0.00 0.00 0.01 47 1011.0
20260507051040 85 153 8.7 38.2 0.00 0.00 0.01 47 1011.0
20260507050840 85 153 8.7 38.2 0.00 0.00 0.01 47 1011.0
20260507050640 85 153 8.7 38.2 0.00 0.00 0.01 47 1011.0
20260507050440 85 153 8.7 38.2 0.00 0.00 0.01 47 1011.0
20260507050240 85 153 8.7 38.2 0.00 0.00 0.01 47 1011.0
20260507050042 85 153 8.7 38.2 0.00 0.00 0.01 47 1011.0
20260507045840 84 159 8.7 38.2 0.00 0.00 0.01 49 1011.0
20260507045439 84 159 8.7 38.2 0.00 0.00 0.01 49 1011.0
20260507045239 84 159 8.7 38.2 0.00 0.00 0.01 49 1011.0
20260507045039 84 159 8.7 38.2 0.00 0.00 0.01 49 1011.0
20260507044839 84 159 8.7 38.2 0.00 0.00 0.01 49 1011.0
20260507044639 84 159 8.7 38.2 0.00 0.00 0.01 49 1011.0
20260507044439 83 162 9.6 38.2 0.00 0.00 0.01 51 1011.0
20260507044239 83 162 9.6 38.2 0.00 0.00 0.01 51 1011.0
20260507044039 83 162 9.6 38.2 0.00 0.00 0.01 51 1011.0
20260507043839 83 162 9.6 38.2 0.00 0.00 0.01 51 1011.0
20260507043639 83 162 9.6 38.2 0.00 0.00 0.01 51 1011.0
20260507043240 83 162 9.6 38.2 0.00 0.00 0.01 51 1011.0
20260507043040 83 162 9.6 38.2 0.00 0.00 0.01 51 1011.0
20260507042840 82 164 10.4 38.2 0.00 0.00 0.01 54 1011.0
20260507042640 82 164 10.4 38.2 0.00 0.00 0.01 54 1011.0
20260507042439 82 164 10.4 38.2 0.00 0.00 0.01 54 1011.0
20260507042240 82 164 10.4 38.2 0.00 0.00 0.01 54 1011.0
20260507042040 82 164 10.4 38.2 0.00 0.00 0.01 54 1011.0
20260507041839 82 164 10.4 38.2 0.00 0.00 0.01 54 1011.0
20260507041640 82 164 10.4 38.2 0.00 0.00 0.01 54 1011.0
20260507041440 81 164 11.3 38.2 0.00 0.00 0.01 57 1011.0
20260507041039 81 164 11.3 38.2 0.00 0.00 0.01 57 1011.0
20260507040839 81 164 11.3 38.2 0.00 0.00 0.01 57 1011.0
20260507040639 81 164 11.3 38.2 0.00 0.00 0.01 57 1011.0
20260507040439 81 164 11.3 38.2 0.00 0.00 0.01 57 1011.0
20260507040240 81 164 11.3 38.2 0.00 0.00 0.01 57 1011.0
20260507040042 81 164 11.3 38.2 0.00 0.00 0.01 57 1011.0
20260507035839 80 165 11.3 38.2 0.00 0.00 0.01 60 1011.0
20260507035639 80 165 11.3 38.2 0.00 0.00 0.01 60 1011.0
20260507035440 80 165 11.3 38.2 0.00 0.00 0.01 60 1011.0
20260507035240 80 165 11.3 38.2 0.00 0.00 0.01 60 1011.0
20260507034842 80 165 11.3 38.2 0.00 0.00 0.01 60 1011.0
20260507034240 79 164 11.3 38.2 0.00 0.00 0.01 62 1011.0
20260507033844 79 164 11.3 38.2 0.00 0.00 0.01 62 1011.0
20260507033641 79 164 11.3 38.2 0.00 0.00 0.01 62 1011.0
20260507033440 79 164 11.3 38.2 0.00 0.00 0.01 62 1011.0
20260507033240 79 164 11.3 38.2 0.00 0.00 0.01 62 1011.0
20260507033041 79 164 11.3 38.2 0.00 0.00 0.01 62 1011.0
20260507032639 78 163 12.2 38.2 0.00 0.00 0.01 66 1011.0
20260507032439 78 163 12.2 38.2 0.00 0.00 0.01 66 1011.0
20260507032239 78 163 12.2 38.2 0.00 0.00 0.01 66 1011.0
20260507032040 78 163 12.2 38.2 0.00 0.00 0.01 66 1011.0
20260507031839 78 163 12.2 38.2 0.00 0.00 0.01 66 1011.0
20260507031639 78 163 12.2 38.2 0.00 0.00 0.01 66 1011.0
20260507031439 77 162 12.2 37.4 0.00 0.00 0.01 69 1011.0
20260507031239 77 162 12.2 37.4 0.00 0.00 0.01 69 1011.0
20260507031040 77 162 12.2 37.4 0.00 0.00 0.01 69 1011.0
20260507030639 77 162 12.2 37.4 0.00 0.00 0.01 69 1011.0
20260507030440 77 162 12.2 37.4 0.00 0.00 0.01 69 1011.0
20260507030239 77 162 12.2 37.4 0.00 0.00 0.01 69 1011.0
20260507030042 77 162 12.2 37.4 0.00 0.00 0.01 69 1011.0
20260507025840 76 159 12.2 37.4 0.00 0.00 0.01 73 1011.0
20260507025640 76 159 12.2 37.4 0.00 0.00 0.01 73 1011.0
20260507025440 76 159 12.2 37.4 0.00 0.00 0.01 73 1011.0
20260507025240 76 159 12.2 37.4 0.00 0.00 0.01 73 1011.0
20260507025040 76 159 12.2 37.4 0.00 0.00 0.01 73 1011.0
20260507024840 76 159 12.2 37.4 0.00 0.00 0.01 73 1011.0
20260507024440 75 156 12.2 37.4 0.00 0.00 0.01 76 1011.0
20260507024239 75 156 12.2 37.4 0.00 0.00 0.01 76 1011.0
20260507024040 75 156 12.2 37.4 0.00 0.00 0.01 76 1011.0
20260507023839 75 156 12.2 37.4 0.00 0.00 0.01 76 1011.0
20260507023640 75 156 12.2 37.4 0.00 0.00 0.01 76 1011.0
20260507023440 75 156 12.2 37.4 0.00 0.00 0.01 76 1011.0
20260507023240 75 156 12.2 37.4 0.00 0.00 0.01 76 1011.0
20260507023040 75 156 12.2 37.4 0.00 0.00 0.01 76 1011.0
20260507022840 74 154 13.0 37.4 0.00 0.00 0.01 80 1011.0
20260507022440 74 154 13.0 37.4 0.00 0.00 0.01 80 1011.0
20260507022240 74 154 13.0 37.4 0.00 0.00 0.01 80 1011.0
20260507022039 74 154 13.0 37.4 0.00 0.00 0.01 80 1011.0
20260507021839 74 154 13.0 37.4 0.00 0.00 0.01 80 1011.0
20260507021640 74 154 13.0 37.4 0.00 0.00 0.01 80 1011.0
20260507021440 73 152 13.0 36.5 0.00 0.00 0.01 83 1011.0
20260507021240 73 152 13.0 36.5 0.00 0.00 0.01 83 1011.0
20260507021040 73 152 13.0 36.5 0.00 0.00 0.01 83 1011.0
20260507020840 73 152 13.0 36.5 0.00 0.00 0.01 83 1011.0
20260507020640 73 152 13.0 36.5 0.00 0.00 0.01 83 1011.0
20260507020240 73 152 13.0 36.5 0.00 0.00 0.01 83 1011.0
20260507020041 73 152 13.0 36.5 0.00 0.00 0.01 83 1011.0
20260507015840 73 149 13.0 35.6 0.00 0.00 0.01 86 1011.0
20260507015640 73 149 13.0 35.6 0.00 0.00 0.01 86 1011.0
20260507015440 73 149 13.0 35.6 0.00 0.00 0.01 86 1011.0
20260507015240 73 149 13.0 35.6 0.00 0.00 0.01 86 1011.0
20260507015040 73 149 13.0 35.6 0.00 0.00 0.01 86 1011.0
20260507014840 73 149 13.0 35.6 0.00 0.00 0.01 86 1011.0
20260507014640 73 149 13.0 35.6 0.00 0.00 0.01 86 1011.0
20260507014240 72 145 12.2 33.9 0.00 0.00 0.01 89 1011.0
20260507014040 72 145 12.2 33.9 0.00 0.00 0.01 89 1011.0
20260507013840 72 145 12.2 33.9 0.00 0.00 0.01 89 1011.0
20260507013640 72 145 12.2 33.9 0.00 0.00 0.01 89 1011.0
20260507013440 72 148 11.3 33.9 0.00 0.00 0.01 89 1011.0
20260507013240 72 148 11.3 33.9 0.00 0.00 0.01 89 1011.0
20260507013040 72 148 11.3 32.2 0.00 0.00 0.01 89 1011.0
20260507012840 71 147 12.2 30.4 0.00 0.00 0.01 91 1011.0
20260507012640 71 147 12.2 30.4 0.00 0.00 0.01 91 1011.0
20260507012440 71 147 12.2 30.4 0.00 0.00 0.01 91 1011.0
20260507012040 70 147 12.2 30.4 0.00 0.00 0.01 93 1011.0
20260507011840 70 147 12.2 30.4 0.00 0.00 0.01 93 1011.0
20260507011640 70 147 12.2 30.4 0.00 0.00 0.01 93 1011.0
20260507011440 70 148 13.0 29.5 0.00 0.00 0.01 94 1010.0
20260507011240 70 148 13.0 29.5 0.00 0.00 0.01 94 1010.0
20260507011040 70 148 13.0 29.5 0.00 0.00 0.01 94 1011.0
20260507010840 70 148 13.0 29.5 0.00 0.00 0.01 95 1011.0
20260507010640 70 148 13.0 29.5 0.00 0.00 0.01 95 1011.0
20260507010440 70 148 13.0 29.5 0.00 0.00 0.01 95 1011.0
20260507010240 70 148 13.0 29.5 0.00 0.00 0.01 95 1011.0
20260507005840 70 147 13.9 29.5 0.00 0.00 0.01 96 1011.0
20260507005640 70 147 13.9 29.5 0.00 0.00 0.01 96 1011.0
20260507005440 70 147 13.9 29.5 0.00 0.00 0.01 96 1011.0
20260507005242 70 147 13.9 29.5 0.00 0.00 0.01 96 1011.0
20260507005040 70 147 13.9 29.5 0.00 0.00 0.01 96 1011.0
20260507004840 70 147 13.9 29.5 0.00 0.00 0.01 96 1011.0
20260507004640 70 147 13.9 29.5 0.00 0.00 0.01 96 1011.0
20260507004440 70 147 13.9 30.4 0.00 0.00 0.01 96 1010.0
20260507004240 70 147 13.9 30.4 0.00 0.00 0.01 96 1010.0
20260507003840 70 147 13.9 30.4 0.00 0.00 0.01 96 1010.0
20260507003640 70 147 13.9 30.4 0.00 0.00 0.01 96 1010.0
20260507003440 70 147 13.9 30.4 0.00 0.00 0.01 96 1010.0
20260507003240 70 147 13.9 30.4 0.00 0.00 0.01 96 1010.0
20260507003040 70 147 13.9 30.4 0.00 0.00 0.01 96 1010.0
20260507002840 70 148 13.0 31.3 0.00 0.00 0.01 96 1010.0
20260507002640 70 148 13.0 31.3 0.00 0.00 0.01 96 1010.0
20260507002440 70 148 13.0 31.3 0.00 0.00 0.01 96 1010.0
20260507002240 70 148 13.0 31.3 0.00 0.00 0.01 96 1010.0
20260507002040 70 148 13.0 31.3 0.00 0.00 0.01 96 1010.0
20260507001640 70 148 13.0 31.3 0.00 0.00 0.01 96 1010.0
20260507001440 70 148 13.0 31.3 0.00 0.00 0.01 95 1010.0
20260507001240 70 148 13.0 31.3 0.00 0.00 0.01 95 1010.0
20260507001040 70 148 13.0 31.3 0.00 0.00 0.01 95 1010.0
20260507000840 70 148 13.0 31.3 0.00 0.00 0.01 95 1010.0
20260507000640 70 148 13.0 31.3 0.00 0.00 0.01 95 1010.0
20260507000442 70 148 13.0 31.3 0.00 0.00 0.01 95 1010.0
20260507000240 70 148 13.0 31.3 0.00 0.00 0.01 95 1010.0
20260507000043 70 148 13.0 31.3 0.00 0.00 0.01 95 1010.0
20260506235640 70 149 13.0 30.4 0.00 0.00 0.01 95 1010.0
20260506235440 70 149 13.0 30.4 0.00 0.00 0.01 95 1010.0
20260506235240 70 149 13.0 30.4 0.00 0.00 0.01 95 1010.0
20260506235040 70 149 13.0 30.4 0.00 0.00 0.01 95 1010.0
20260506234840 70 149 13.0 30.4 0.00 0.00 0.01 95 1010.0
20260506234640 70 149 13.0 30.4 0.00 0.00 0.01 95 1010.0
20260506234440 70 151 13.0 29.5 0.00 0.00 0.01 95 1010.0
20260506234240 70 151 13.0 29.5 0.00 0.00 0.01 95 1010.0
20260506234040 70 151 13.0 29.5 0.00 0.00 0.01 95 1010.0
20260506233840 70 151 13.0 29.5 0.00 0.00 0.01 95 1010.0
20260506233440 70 151 13.0 29.5 0.00 0.00 0.01 95 1010.0
20260506233240 70 151 13.0 29.5 0.00 0.00 0.01 95 1010.0
20260506233041 70 151 13.0 29.5 0.00 0.00 0.01 95 1010.0
20260506232840 70 152 13.0 29.5 0.00 0.00 0.01 94 1010.0
20260506232640 70 152 13.0 29.5 0.00 0.00 0.01 94 1010.0
20260506232441 70 152 13.0 29.5 0.00 0.00 0.01 94 1010.0
20260506232240 70 152 13.0 29.5 0.00 0.00 0.01 94 1010.0
20260506232040 70 152 13.0 29.5 0.00 0.00 0.01 94 1010.0
20260506231840 70 152 13.0 29.5 0.00 0.00 0.01 94 1010.0
20260506231640 70 152 13.0 29.5 0.00 0.00 0.01 94 1010.0
20260506231240 70 153 13.0 28.7 0.00 0.00 0.01 93 1010.0
20260506231040 70 153 13.0 28.7 0.00 0.00 0.01 93 1010.0
20260506230840 70 153 13.0 28.7 0.00 0.00 0.01 93 1010.0
20260506230640 70 153 13.0 28.7 0.00 0.00 0.01 93 1010.0
20260506230440 70 153 13.0 28.7 0.00 0.00 0.01 93 1010.0
20260506230240 70 153 13.0 28.7 0.00 0.00 0.01 93 1010.0
20260506230042 70 153 13.0 28.7 0.00 0.00 0.01 93 1010.0
20260506225840 71 152 12.2 28.7 0.00 0.00 0.01 93 1009.0
20260506225640 71 152 12.2 28.7 0.00 0.00 0.01 93 1009.0
20260506225441 71 152 12.2 28.7 0.00 0.00 0.01 93 1009.0
20260506225040 71 152 12.2 28.7 0.00 0.00 0.01 93 1009.0
20260506224840 71 152 12.2 28.7 0.00 0.00 0.01 93 1009.0
20260506224640 71 152 12.2 28.7 0.00 0.00 0.01 93 1009.0
20260506224440 71 151 13.0 29.5 0.00 0.00 0.01 93 1009.0
20260506224240 71 151 13.0 29.5 0.00 0.00 0.01 93 1009.0
20260506224040 71 151 13.0 29.5 0.00 0.00 0.01 93 1009.0
20260506223840 71 151 13.0 29.5 0.00 0.00 0.01 93 1009.0
20260506223640 71 151 13.0 29.5 0.00 0.00 0.01 93 1009.0
20260506223440 71 151 13.0 29.5 0.00 0.00 0.01 93 1009.0
20260506223040 71 151 13.0 29.5 0.00 0.00 0.01 93 1009.0
20260506222840 71 149 12.2 29.5 0.00 0.00 0.01 93 1009.0
20260506222640 71 149 12.2 29.5 0.00 0.00 0.01 93 1009.0
20260506222440 71 149 12.2 29.5 0.00 0.00 0.01 93 1009.0
20260506222240 71 149 12.2 29.5 0.00 0.00 0.01 93 1009.0
20260506222040 71 149 12.2 29.5 0.00 0.00 0.01 93 1009.0
20260506221840 71 149 12.2 29.5 0.00 0.00 0.01 93 1009.0
20260506221640 71 149 12.2 29.5 0.00 0.00 0.01 93 1009.0
20260506221440 71 147 12.2 29.5 0.00 0.00 0.01 93 1009.0
20260506221040 71 147 12.2 29.5 0.00 0.00 0.01 93 1009.0
20260506220840 71 147 12.2 29.5 0.00 0.00 0.01 93 1009.0
20260506220640 71 147 12.2 29.5 0.00 0.00 0.01 93 1009.0
20260506220440 71 147 12.2 29.5 0.00 0.00 0.01 93 1009.0
20260506220240 71 147 12.2 29.5 0.00 0.00 0.01 93 1009.0
20260506220043 71 147 12.2 29.5 0.00 0.00 0.01 93 1009.0
20260506215840 71 147 12.2 29.5 0.00 0.00 0.01 93 1009.0
20260506215640 71 147 12.2 29.5 0.00 0.00 0.01 93 1009.0
20260506215440 71 147 12.2 29.5 0.00 0.00 0.01 93 1009.0
20260506215241 71 147 12.2 29.5 0.00 0.00 0.01 93 1009.0
20260506214840 71 147 12.2 29.5 0.00 0.00 0.01 93 1009.0
20260506214640 71 147 12.2 29.5 0.00 0.00 0.01 93 1009.0
20260506214440 71 146 13.0 28.7 0.00 0.00 0.01 93 1009.0
20260506214240 71 146 13.0 28.7 0.00 0.00 0.01 93 1009.0
20260506214040 71 146 13.0 28.7 0.00 0.00 0.01 93 1009.0